Location: ??
(35.3149°N, 139.6204°E)
Time: 11:10:02
(UTC+00:00)

Ariane Rocket - Pass Details

Date: 03 August 2024
Orbit: 757 x 766 km, 98.5° (Epoch: 09 September)

Event Time Altitude Azimuth Distance (km) Brightness Sun altitude
Exits shadow 13:03:34 30° 273° (W) 1,339 4.4 -31.9°
Drops below altitude 10° 13:07:31 10° 324° (NW) 2,293 6.3 -32.3°
Sets 13:10:05 0° 335° (NNW) 3,221 7.3 -32.5°
